Content
SEND FEEDBACK

Daily
Averages
Monthly
Summary
United States of America

NEW YORK - CENTRAL PARK, NEW YORK


Home > North America > United States > New York
Elevation: 14 feet     Latitude: 40 47N     Longitude: 073 58W

WEATHER
 
SELECT A DAY
Number of Records: 148,440;   Date Range: 11/1/95 - 9/22/14
 
SHARE

PRINT THIS DATA

[ ← Previous Day ]
WEATHER ALMANAC - MAY 13, 2014
[ Next Day → ]
[ °C ]   °F
Weather ElementAverageHighLow
Temperature64.8 °F72 °F (1:51 am)54 °F (11:51 pm)
Dewpoint46.5 °F61 °F (2:51 am)41 °F (10:51 am)
Humidity53.2 %78 % (5:51 am)35 % (1:51 pm)
Barometer30.19 in30.30 in (11:51 pm)30.01 in (2:51 am)
Wind Speed7.1 mph16.1 mph (9:51 am)
Wind Gust27.6 mph (6:51 am)
Weather ElementAverage
Visibility9.6 mi
Wind DirectionENE (68.7 °)

Weather ElementTotal
Precipitation---
Heating Degree Days2 (Base 65)
Growing Degree Days13 (Base 50)
Averaged from 23 records on May 13, 2014
WEATHER CONDITIONS BREAKOUT
WIND DIRECTION BREAKOUT
WEATHER BY HOUR - MAY 13, 2014
[ °C ]   °F
Local TimeTemperatureDewpointHumidityBarometerVisibilityWind DirectionWind SpeedGust SpeedPrecipitationEventsConditions
1:51 AM72.0 °F60.1 °F66 %30.04 in10.0 miCalmClear
2:51 AM71.1 °F61.0 °F70 %30.01 in10.0 miCalmClear
3:51 AM69.1 °F61.0 °F75 %30.02 in9.0 miWNW (290°)3.5 mphClear
4:51 AM69.1 °F61.0 °F75 %30.05 in8.0 miCalmClear
5:51 AM68.0 °F61.0 °F78 %30.09 in5.0 miENE (70°)11.5 mph25.3 mphHaze
6:51 AM61.0 °F46.9 °F60 %30.14 in9.0 miENE (70°)13.8 mph27.6 mphMostly Cloudy
7:51 AM60.1 °F44.1 °F55 %30.16 in10.0 miEast (100°)10.4 mph23.0 mphScattered Clouds
8:51 AM60.8 °F42.8 °F52 %30.22 in10.0 miEast (100°)12.7 mph20.7 mphClear
9:51 AM62.1 °F42.1 °F48 %30.21 in10.0 miENE (70°)16.1 mph27.6 mphClear
10:51 AM64.0 °F41.0 °F43 %30.22 in10.0 miENE (60°)11.5 mph21.9 mphClear
11:51 AM66.2 °F42.8 °F43 %30.24 in10.0 miEast (80°)6.9 mphClear
12:51 PM69.1 °F42.1 °F38 %30.22 in10.0 miENE (60°)5.8 mphClear
1:51 PM71.1 °F42.1 °F35 %30.22 in10.0 miEast (80°)8.1 mphClear
2:51 PM69.1 °F42.1 °F38 %30.21 in10.0 miVariable5.8 mphClear
3:51 PM69.1 °F41.0 °F36 %30.21 in10.0 miESE (110°)8.1 mphClear
4:51 PM70.0 °F42.1 °F36 %30.22 in10.0 miEast (100°)5.8 mphClear
5:51 PM69.1 °F41.0 °F36 %30.21 in10.0 miEast (90°)8.1 mphClear
6:51 PM66.0 °F41.0 °F40 %30.22 in10.0 miVariable5.8 mphClear
7:51 PM61.0 °F41.0 °F48 %30.25 in10.0 miVariable5.8 mphClear
8:51 PM57.9 °F42.1 °F56 %30.27 in10.0 miVariable4.6 mphClear
9:51 PM55.9 °F43.0 °F62 %30.28 in10.0 miVariable4.6 mphClear
10:51 PM55.0 °F44.1 °F67 %30.29 in10.0 miSSE (150°)8.1 mphClear
11:51 PM54.0 °F43.0 °F66 %30.30 in10.0 miSSE (150°)6.9 mphClear
Hourly data recorded from KNYC, located miles away from New York - Central Park, New York







STORIES FROM OUR PARTNERS